Theta_e
321 327 333 333 337 342 350 353 349 350 350 344 342 347 353 356 354 341 346 344 344 343 346 345 343 344 343 344 344 339 337 337 339 341 341 341 341 339 339 340 340 339 339 336 335 335 335 336 335
320 329 329 326 339 342 348 349 349 349 346 344 344 346 355 359 350 348 346 344 341 344 345 345 343 343 343 344 342 339 338 337 339 340 341 340 339 338 338 338 338 337 337 335 333 333 334 335 334
324 326 325 325 337 342 344 348 350 346 342 341 345 345 354 356 348 346 346 342 342 344 344 344 343 342 344 344 343 341 339 338 339 339 340 339 338 338 337 337 337 336 335 334 333 333 334 333 332
326 321 317 329 337 335 346 347 346 344 340 338 343 353 352 351 350 348 344 340 342 344 345 345 344 344 345 345 343 338 338 338 338 337 337 337 336 336 336 335 334 333 332 332 332 333 333 333 332
319 316 321 336 353 351 349 346 345 342 343 344 344 357 356 350 350 345 340 340 341 344 344 345 345 346 344 346 344 339 338 338 337 336 336 336 335 334 333 333 332 331 331 331 331 331 331 331 331
314 314 327 346 350 352 349 344 343 344 346 351 354 354 354 346 344 342 338 338 338 343 343 346 346 346 346 347 345 341 340 341 339 336 335 335 334 333 332 331 331 331 330 330 330 330 329 329 329
314 314 320 341 352 353 349 344 344 341 342 351 349 356 351 348 346 343 339 340 342 342 344 345 346 346 345 344 344 339 339 338 336 335 334 332 332 331 331 331 330 330 331 332 334 336 336 336 332
310 313 320 341 353 350 347 341 337 343 348 341 343 355 355 350 347 343 341 342 341 342 343 345 345 346 345 347 342 340 339 339 338 334 333 332 331 331 333 335 337 338 340 341 342 341 340 340 340
309 311 314 317 346 345 342 339 342 339 340 342 343 345 350 349 347 344 344 343 342 342 341 340 340 341 342 343 342 342 341 341 336 333 332 333 331 330 329 334 340 343 342 342 342 343 342 341 341
310 311 313 324 340 345 342 341 343 343 341 341 343 350 348 348 343 339 338 332 336 336 339 339 337 338 337 336 336 337 337 336 335 335 334 333 331 333 336 343 343 342 342 340 340 339 338 337 335
309 318 332 347 341 341 342 344 343 342 344 338 341 337 333 331 329 327 324 329 328 328 334 339 340 338 332 334 340 340 333 333 335 334 333 332 333 337 340 343 342 340 340 339 339 338 337 337 336
316 323 346 347 343 339 344 342 337 337 335 331 330 329 328 325 324 322 320 321 322 325 328 334 338 341 342 341 342 343 340 334 335 337 337 338 338 339 340 342 341 340 340 339 339 339 339 338 337
312 339 347 341 340 341 335 336 332 330 328 326 326 325 324 321 320 320 320 320 321 323 324 328 333 339 341 342 342 339 338 339 338 339 339 340 340 341 342 341 340 339 339 339 339 339 339 338 338
314 344 345 342 339 333 331 329 332 325 324 324 323 322 321 320 319 318 319 319 320 321 323 324 330 335 338 338 337 334 334 334 335 336 337 339 340 340 338 337 337 336 336 336 337 337 337 337 337
340 345 342 343 338 337 335 338 334 324 322 323 322 320 319 319 317 317 317 317 317 319 321 324 327 329 333 333 332 330 328 328 329 329 329 332 333 333 332 332 331 331 332 333 335 335 335 336 337
339 340 350 342 337 335 337 347 326 322 323 322 322 320 319 318 316 315 315 315 314 316 320 321 323 325 326 327 325 324 323 323 322 322 323 324 325 326 327 327 326 325 325 325 326 327 328 329 331
322 349 345 346 335 336 332 334 326 322 323 322 320 320 318 317 316 315 314 313 312 313 315 317 319 321 322 321 320 319 318 319 319 318 317 317 318 318 319 319 318 317 317 317 315 316 315 317 318
328 348 331 348 343 334 335 334 326 323 324 321 319 319 317 317 317 314 313 312 311 312 313 314 316 317 317 317 316 316 316 314 313 311 311 311 311 311 311 310 310 310 309 309 308 307 307 308 309
310 340 333 340 337 337 335 335 326 323 322 320 318 316 316 316 316 314 313 312 311 311 312 313 315 315 314 314 313 311 309 309 308 307 306 306 305 305 305 304 304 303 303 303 303 303 304 304 308
311 316 324 314 332 339 334 333 327 323 322 319 317 315 315 314 314 314 312 311 310 310 310 311 312 314 315 314 311 310 308 306 305 303 302 302 302 302 302 302 301 301 301 301 301 300 301 301 304
310 310 310 312 325 326 328 330 328 324 319 317 316 314 313 313 313 311 311 310 310 310 309 309 310 311 311 310 309 308 307 306 304 301 301 300 300 300 300 300 300 300 299 298 298 298 298 299 300
317 312 312 323 326 328 328 334 326 325 321 319 316 313 312 312 311 310 309 309 310 309 308 309 309 308 308 309 308 306 304 303 302 301 300 300 299 298 298 298 299 299 298 297 296 297 297 297 297
317 315 312 321 324 324 327 327 322 324 322 320 316 313 312 311 310 309 308 309 309 308 308 308 308 307 306 305 305 304 303 302 302 301 301 301 299 298 298 297 297 298 297 297 296 295 296 296 296
317 315 312 313 316 321 321 329 322 324 328 326 316 312 311 310 309 308 308 308 308 309 308 308 307 307 306 306 305 304 303 303 302 302 302 301 300 299 298 297 296 297 297 297 297 296 294 295 296
315 312 314 316 319 320 318 327 323 320 322 324 316 312 311 310 309 308 307 307 308 308 308 307 307 306 306 305 304 304 303 302 302 301 300 301 301 299 299 297 296 296 296 297 297 295 294 294 294
314 314 315 319 318 317 319 325 322 311 311 311 313 311 310 309 308 307 307 307 308 307 307 307 306 306 305 304 304 303 302 301 301 301 300 299 301 300 299 297 296 295 297 296 296 295 293 292 293
320 315 314 316 314 314 314 318 315 311 312 313 312 310 308 308 307 307 307 307 307 307 306 307 306 305 304 304 305 303 302 301 301 300 299 299 300 301 299 297 296 294 295 295 293 293 293 291 292
325 322 323 315 320 320 319 323 320 316 312 311 311 308 307 307 307 306 307 306 307 307 306 306 306 305 304 303 304 303 301 301 301 299 299 298 299 299 300 298 296 295 293 293 293 291 291 290 291
328 328 324 319 319 321 326 324 320 314 309 310 307 307 307 306 305 304 304 305 305 306 306 306 306 305 305 304 304 303 301 301 300 298 295 296 298 299 299 298 296 295 292 293 292 291 291 289 291
328 329 326 333 333 327 326 326 309 307 307 306 306 307 306 305 303 304 304 304 304 306 305 305 305 305 305 304 304 303 302 301 300 297 295 297 298 299 297 297 294 293 290 291 292 291 291 290 290
Wind_Speed
3 4 4 2 4 5 3 2 2 4 5 6 3 3 8 4 0 3 8 5 22 24 20 17 15 16 16 16 16 19 20 22 22 20 18 17 16 16 15 14 12 11 11 9 9 9 8 8 7
3 2 3 2 4 4 3 1 12 4 4 6 6 4 4 3 3 8 8 18 24 24 21 18 16 17 16 15 18 19 20 22 21 18 16 15 14 13 12 11 9 8 8 6 7 6 6 5 6
1 1 3 4 3 3 4 3 5 3 3 4 3 4 3 3 6 11 11 26 24 22 19 17 16 18 16 15 18 18 19 20 18 16 15 14 13 11 9 8 6 5 4 4 5 4 4 5 5
1 5 4 4 2 3 3 5 6 1 1 7 4 6 5 3 8 12 22 26 24 21 17 16 16 16 16 16 16 19 18 17 16 15 14 12 11 9 8 5 3 2 2 3 4 4 5 5 5
3 3 4 3 3 3 3 7 4 5 3 6 3 2 3 5 10 22 27 24 23 21 18 15 14 14 14 15 15 18 17 15 13 12 11 10 9 7 5 3 1 2 3 4 5 5 6 7 7
3 3 4 1 4 3 4 4 1 3 5 5 5 3 3 11 20 23 24 22 21 19 17 14 14 13 13 13 13 15 15 13 12 10 8 6 5 4 2 0 2 4 6 7 8 8 9 10 10
6 4 4 4 3 3 5 2 2 4 5 6 4 3 3 4 14 18 21 18 17 15 14 13 12 11 11 11 12 12 12 11 10 8 6 4 3 1 1 3 4 7 9 10 11 10 11 12 13
5 5 4 4 6 5 1 2 2 6 5 1 4 4 5 9 17 19 18 15 14 12 11 11 12 10 11 9 9 9 9 8 6 5 4 3 3 2 3 5 9 12 13 14 15 15 14 13 14
4 5 4 6 7 4 4 3 3 2 6 4 5 2 17 22 22 22 19 15 12 8 7 8 8 9 10 9 8 7 7 6 6 5 4 4 4 5 6 9 12 14 14 14 14 13 12 13 13
4 4 10 6 7 6 7 5 6 4 5 3 6 16 23 22 19 17 15 12 11 8 5 6 7 7 7 5 4 6 7 7 6 6 6 6 6 6 7 10 13 12 11 11 11 12 12 13 14
5 6 6 4 6 11 10 4 3 7 3 1 6 10 15 20 17 15 12 14 13 11 9 7 6 3 5 6 3 4 6 6 5 6 7 8 7 7 9 10 9 9 9 11 12 13 14 14 14
4 5 4 2 7 7 12 6 5 3 3 8 9 9 12 15 16 14 14 13 13 13 13 11 8 5 4 4 3 2 6 6 5 5 6 7 7 7 7 8 6 8 10 11 13 15 15 15 14
4 4 2 6 8 7 8 5 7 5 9 12 14 14 13 14 16 17 16 13 12 13 13 12 10 9 7 6 6 6 6 5 3 2 4 5 4 3 1 2 3 5 7 9 11 14 17 17 17
1 5 6 5 6 5 8 4 5 3 9 12 12 11 11 13 13 16 14 12 11 10 10 10 11 11 9 10 11 13 13 13 11 10 8 6 3 3 3 3 3 5 6 8 9 10 13 15 17
4 6 7 3 2 4 11 1 3 12 9 11 11 10 10 11 13 13 13 12 9 9 9 8 10 10 10 12 13 14 15 15 14 14 12 11 9 8 6 6 5 6 7 8 9 10 12 14 16
5 5 3 3 2 3 2 7 5 10 12 10 11 9 9 7 11 13 12 12 9 8 8 9 9 10 11 12 14 15 15 15 15 14 13 12 11 9 7 7 8 8 9 10 12 14 15 15 18
6 3 2 1 4 4 3 5 8 10 12 10 8 8 8 8 10 12 12 12 11 11 10 9 9 10 12 14 15 16 15 15 14 13 13 12 10 9 8 8 8 10 11 13 15 15 17 17 20
7 4 3 6 12 6 4 10 10 12 10 12 10 8 8 7 6 12 13 13 13 12 12 11 11 13 13 14 16 17 17 17 15 15 14 12 12 11 10 10 10 12 13 15 16 14 14 14 22
6 5 5 5 2 7 13 9 9 11 6 10 10 10 9 8 9 13 12 12 12 11 11 11 13 14 14 15 15 15 18 17 17 16 15 14 14 13 13 13 13 14 15 18 19 18 18 20 26
4 4 6 5 3 11 8 14 3 10 7 8 12 10 10 8 7 10 11 11 12 13 13 13 13 13 12 11 13 14 17 20 19 19 19 18 17 17 17 17 17 17 17 20 23 24 19 19 25
5 6 6 9 3 4 5 6 5 6 5 8 8 10 10 14 11 7 12 13 13 14 14 14 14 14 16 16 17 18 17 17 18 20 20 21 21 21 22 22 22 23 24 26 27 28 28 21 18
4 10 8 9 6 6 9 6 6 8 8 10 11 12 13 11 8 9 13 15 16 17 16 16 16 16 14 13 14 16 19 23 20 20 20 22 22 21 23 22 21 21 23 25 26 24 26 24 21
10 6 10 8 10 5 2 1 7 11 8 16 17 16 15 13 13 11 16 20 19 19 19 19 19 19 18 19 19 22 24 21 18 16 18 19 20 20 22 22 19 19 19 20 24 26 24 22 20
6 3 6 4 5 2 10 12 5 7 17 25 12 17 19 15 13 15 20 21 19 19 18 17 19 18 17 18 19 20 20 17 16 15 14 15 16 19 19 21 21 17 16 15 17 21 23 21 18
3 5 3 3 1 6 4 7 8 8 5 8 19 20 19 16 14 12 16 20 21 19 18 17 17 18 15 15 17 17 17 15 14 13 12 10 11 15 15 18 17 16 15 13 14 18 21 22 19
6 8 5 5 4 6 6 6 5 6 9 8 16 18 18 16 14 12 18 22 22 19 17 18 17 18 16 13 15 15 15 14 13 12 11 11 9 9 10 14 16 15 12 12 13 15 17 20 18
1 4 4 3 3 2 3 5 2 10 11 10 15 18 18 16 13 13 16 21 20 19 18 18 18 16 16 14 14 14 12 12 11 10 9 9 9 7 8 10 14 15 13 12 13 14 16 19 19
3 1 1 3 4 6 3 4 4 5 3 4 12 14 16 15 11 10 15 17 20 19 19 17 17 16 16 13 11 12 14 11 11 8 7 7 8 7 4 7 11 13 12 12 13 15 17 19 20
1 2 3 4 1 3 2 5 3 7 7 8 6 11 15 12 11 9 13 18 17 18 19 18 18 18 18 15 13 11 11 10 11 10 7 5 7 6 4 6 10 10 13 11 14 16 18 20 20
1 2 5 4 4 1 2 5 4 6 10 12 11 12 10 11 9 12 17 19 16 21 18 18 15 13 12 14 14 11 9 8 9 9 8 6 6 6 5 3 7 8 11 10 12 15 16 18 19
Wind_Direction
21 128 139 55 60 65 20 23 215 357 23 340 44 88 126 62 37 189 122 174 152 145 151 152 150 133 133 127 131 131 130 130 128 124 121 117 114 114 112 109 106 99 94 91 83 80 75 76 71
326 154 163 95 79 63 291 168 158 244 331 281 121 107 74 82 86 126 117 151 146 146 151 148 150 140 137 138 136 138 137 138 135 130 125 122 120 117 116 113 108 102 92 81 71 63 65 60 47
10 2 64 78 94 137 174 197 185 204 277 352 94 76 88 93 117 150 151 150 146 150 152 149 151 142 143 148 145 145 144 144 142 135 129 126 123 119 115 112 104 91 77 60 52 36 29 26 21
322 16 28 71 302 229 199 245 193 54 325 69 122 88 87 177 158 174 152 151 149 154 153 149 151 150 149 152 154 150 151 151 149 143 136 133 127 124 120 114 97 65 27 17 10 3 344 351 348
51 59 65 65 287 250 250 251 252 144 67 27 41 83 60 35 143 145 149 153 151 154 153 153 154 154 156 158 161 157 158 157 154 147 140 139 133 129 124 118 52 343 332 335 343 332 329 328 325
43 95 70 199 258 245 264 233 156 38 91 70 68 48 40 114 122 143 149 152 151 152 156 151 157 162 163 166 168 166 164 165 159 152 149 150 145 144 145 160 310 317 322 325 327 326 324 323 320
128 91 186 175 222 280 216 64 92 127 82 49 19 67 44 108 119 137 143 145 145 151 155 156 158 168 171 175 175 173 171 170 165 162 161 163 172 183 280 314 319 327 327 325 325 326 325 327 319
116 97 122 213 198 245 50 72 14 51 58 22 27 179 174 140 129 137 138 137 138 144 159 163 166 172 181 185 188 184 189 188 186 180 181 194 223 260 314 332 332 326 324 321 320 320 320 320 320
132 80 182 213 171 223 155 117 14 108 81 39 343 263 121 127 138 130 122 116 115 128 156 173 175 185 191 193 190 203 211 217 209 208 221 238 262 286 309 321 330 327 322 322 323 324 327 328 327
103 138 207 203 173 174 150 128 132 110 103 72 61 91 113 121 116 115 124 112 117 107 116 156 177 194 196 195 220 238 230 222 227 246 257 267 278 291 313 331 335 338 342 340 341 346 350 350 349
187 182 203 240 174 149 138 102 109 122 117 263 141 115 101 93 84 87 83 112 108 95 96 107 137 161 198 195 233 257 241 248 263 272 275 284 290 305 319 332 341 352 355 353 345 344 349 353 351
170 254 157 150 155 135 140 115 86 43 95 101 101 107 103 93 88 80 71 85 89 88 83 89 100 101 130 176 215 229 220 229 250 274 288 301 310 315 321 336 341 341 341 338 334 332 335 335 342
202 195 111 83 93 86 81 80 117 81 105 101 103 90 94 92 90 94 103 93 87 78 74 77 91 98 102 119 124 111 113 135 149 225 267 282 296 321 359 355 345 346 337 327 321 315 317 321 322
149 82 78 53 87 72 108 134 76 171 126 106 106 100 98 99 107 104 104 96 88 88 82 80 88 94 101 104 105 103 100 102 102 94 84 86 97 98 83 70 33 4 355 350 338 327 317 316 315
69 83 52 30 97 107 106 348 210 143 130 114 108 108 102 102 101 100 111 102 92 89 91 94 92 97 107 113 109 105 103 100 97 93 89 88 89 88 79 62 40 18 359 344 332 328 325 317 312
68 55 94 284 104 149 117 233 141 148 139 134 127 121 110 95 107 111 107 100 99 103 98 107 107 112 119 120 117 112 106 100 92 87 86 83 78 70 58 42 24 5 350 346 340 336 333 327 323
21 164 175 143 213 147 157 252 159 161 153 150 142 133 127 113 103 107 104 100 89 88 93 97 115 119 126 123 121 111 103 95 87 82 75 69 66 58 43 32 15 360 351 349 350 346 346 340 333
189 170 227 210 200 196 191 257 159 174 170 161 152 149 144 140 132 123 113 104 94 91 93 99 116 125 126 125 117 107 102 92 82 72 62 54 47 38 31 26 16 5 2 0 358 359 1 355 346
143 151 179 256 156 153 221 247 185 183 171 159 162 158 152 141 143 129 121 116 111 109 113 111 122 133 133 126 115 105 93 89 74 63 56 51 45 43 40 36 33 31 30 27 20 17 16 13 6
137 143 224 310 195 179 202 243 181 177 202 181 167 161 158 141 141 139 127 114 105 101 99 103 113 127 146 134 115 109 102 88 79 69 63 60 57 53 55 52 51 48 48 43 39 36 36 32 30
174 167 199 207 108 50 103 305 200 208 143 153 179 165 154 154 153 141 134 126 119 103 97 96 102 113 115 120 122 115 106 91 77 68 68 63 63 63 61 61 61 59 60 56 49 44 43 34 43
246 205 192 159 131 206 176 252 251 194 179 193 176 166 162 160 142 143 143 136 126 115 108 104 102 104 110 129 127 117 102 95 87 83 78 73 65 64 61 58 58 61 62 57 50 44 43 43 35
226 171 181 169 194 126 178 167 250 152 202 213 192 174 164 163 153 154 159 147 138 129 119 114 110 104 103 102 102 101 97 98 98 90 83 75 68 64 63 56 54 58 60 57 49 44 44 46 49
247 107 53 59 119 200 208 195 233 185 211 220 167 172 162 157 152 157 155 146 141 136 129 123 113 106 100 99 99 97 99 99 95 86 80 76 71 65 61 52 51 58 53 49 45 39 41 43 48
122 75 317 315 334 232 213 184 235 236 257 222 183 166 157 154 154 155 154 155 149 145 141 132 121 112 102 101 100 99 95 91 89 83 77 81 79 67 61 50 49 51 46 45 40 32 35 32 34
188 166 172 246 227 266 97 224 244 291 273 294 148 153 145 149 158 159 163 161 155 152 147 140 134 124 113 108 110 106 98 90 92 92 80 74 75 85 69 54 43 38 38 37 28 26 30 25 24
178 177 197 176 35 83 218 292 72 22 17 109 139 147 148 151 157 159 160 162 158 159 157 148 146 133 123 121 123 116 103 93 93 92 74 73 75 98 68 53 40 38 44 39 25 30 22 18 16
140 333 288 18 198 226 276 294 256 3 61 104 147 148 146 152 146 149 154 166 160 171 159 153 153 141 135 119 122 125 111 93 86 67 66 74 83 75 90 42 30 34 36 29 22 20 16 11 13
313 24 48 110 64 193 292 262 224 271 171 152 133 151 149 144 140 133 136 158 160 168 160 159 158 156 150 140 147 139 110 95 73 46 48 81 86 72 90 24 10 15 20 17 13 12 9 7 6
72 187 127 129 264 158 112 275 337 168 153 143 146 152 138 132 134 141 142 149 155 158 158 158 162 167 159 164 160 148 129 105 76 46 62 88 80 78 54 18 357 13 12 12 5 4 3 2 2